TimeAEST,TemperatureF,Dew PointF,Humidity,Sea Level PressureIn,VisibilityMPH,Wind Direction,Wind SpeedMPH,Gust SpeedMPH,PrecipitationIn,Events,Conditions,WindDirDegrees,DateUTC
12:00 AM,73,68,79,30.06,,South,8.1,,,,Overcast,170,2013-07-06 14:00:00
12:00 AM,73.4,68.0,83,30.04,6.2,South,8.1,-,N/A,,Overcast,170,2013-07-06 14:00:00
12:30 AM,73.4,68.0,83,30.04,6.2,South,12.7,-,N/A,,Overcast,180,2013-07-06 14:30:00
1:00 AM,73,68,79,30.05,,South,12.7,,,,,180,2013-07-06 15:00:00
1:00 AM,73.4,68.0,83,30.04,6.2,South,12.7,-,N/A,,Mostly Cloudy,180,2013-07-06 15:00:00
1:30 AM,73.4,68.0,83,30.04,6.2,South,13.8,-,N/A,,Light Drizzle,180,2013-07-06 15:30:00
2:00 AM,73.4,68.0,83,30.04,6.2,South,10.4,-,N/A,,Mostly Cloudy,170,2013-07-06 16:00:00
2:30 AM,73.4,68.0,83,30.01,6.2,South,11.5,-,N/A,,Overcast,170,2013-07-06 16:30:00
3:00 AM,73,68,81,30.03,,SSE,9.2,,,,Overcast,160,2013-07-06 17:00:00
3:00 AM,73.4,68.0,83,30.01,6.2,SSE,9.2,-,N/A,,Overcast,160,2013-07-06 17:00:00
3:30 AM,73.4,68.0,83,30.01,6.2,SSE,11.5,-,N/A,,Overcast,160,2013-07-06 17:30:00
3:41 AM,73.4,68.0,83,30.01,3.1,SSE,11.5,-,N/A,,Light Drizzle,160,2013-07-06 17:41:00
4:00 AM,74,68,78,30.03,,SSE,11.5,,,,,160,2013-07-06 18:00:00
4:00 AM,75.2,68.0,78,30.01,6.2,SSE,11.5,-,N/A,,Mostly Cloudy,160,2013-07-06 18:00:00
4:30 AM,75.2,68.0,78,30.01,6.2,South,11.5,-,N/A,,Mostly Cloudy,180,2013-07-06 18:30:00
5:00 AM,75.2,68.0,78,30.01,6.2,South,10.4,-,N/A,,Mostly Cloudy,170,2013-07-06 19:00:00
5:30 AM,73.4,69.8,88,30.04,3.7,SSE,12.7,-,N/A,,Light Drizzle,150,2013-07-06 19:30:00
6:00 AM,73,70,87,30.04,12,SSE,9.2,,,,Mostly Cloudy,160,2013-07-06 20:00:00
6:00 AM,73.4,69.8,88,30.04,6.2,SSE,9.2,-,N/A,,Mostly Cloudy,160,2013-07-06 20:00:00
6:30 AM,73.4,69.8,88,30.04,6.2,SSE,10.4,-,N/A,,Mostly Cloudy,160,2013-07-06 20:30:00
7:00 AM,73,70,86,30.06,,SE,9.2,,,,,130,2013-07-06 21:00:00
7:00 AM,73.4,69.8,88,30.04,6.2,SE,9.2,-,N/A,,Mostly Cloudy,130,2013-07-06 21:00:00
7:30 AM,73.4,69.8,88,30.06,6.2,SSE,10.4,-,N/A,,Mostly Cloudy,150,2013-07-06 21:30:00
8:00 AM,75.2,68.0,78,30.06,6.2,SSE,15.0,-,N/A,,Scattered Clouds,150,2013-07-06 22:00:00
8:30 AM,75.2,68.0,78,30.06,6.2,SE,15.0,-,N/A,,Scattered Clouds,130,2013-07-06 22:30:00
9:00 AM,77,68,66,30.09,16,SE,17.3,,,,Partly Cloudy,140,2013-07-06 23:00:00
9:00 AM,77.0,68.0,74,30.09,6.2,SE,17.3,-,N/A,,Scattered Clouds,140,2013-07-06 23:00:00
9:30 AM,78.8,69.8,74,30.09,6.2,SE,18.4,-,N/A,,Mostly Cloudy,140,2013-07-06 23:30:00
10:00 AM,81,68,57,30.10,,SE,17.3,,,,,140,2013-07-07 00:00:00
10:00 AM,80.6,68.0,65,30.09,6.2,SE,17.3,-,N/A,,Scattered Clouds,140,2013-07-07 00:00:00
10:30 AM,82.4,68.0,62,30.09,6.2,SSE,19.6,-,N/A,,Scattered Clouds,150,2013-07-07 00:30:00
11:00 AM,82.4,66.2,58,30.06,6.2,SSE,19.6,-,N/A,,Scattered Clouds,150,2013-07-07 01:00:00
11:30 AM,82.4,68.0,62,30.06,6.2,SE,17.3,-,N/A,,Partly Cloudy,140,2013-07-07 01:30:00
12:00 PM,81,67,53,30.07,19,SE,20.7,,,,Partly Cloudy,130,2013-07-07 02:00:00
12:00 PM,80.6,66.2,61,30.06,6.2,SE,20.7,-,N/A,,Scattered Clouds,130,2013-07-07 02:00:00
12:30 PM,82.4,68.0,62,30.04,6.2,SE,19.6,-,N/A,,Scattered Clouds,140,2013-07-07 02:30:00
1:00 PM,81,67,54,30.05,,SE,21.9,,,,,130,2013-07-07 03:00:00
1:00 PM,80.6,68.0,65,30.04,6.2,SE,21.9,-,N/A,,Scattered Clouds,130,2013-07-07 03:00:00
1:30 PM,82.4,66.2,58,30.04,6.2,SE,19.6,-,N/A,,Scattered Clouds,130,2013-07-07 03:30:00
2:00 PM,80.6,66.2,61,30.01,6.2,SE,19.6,-,N/A,,Partly Cloudy,140,2013-07-07 04:00:00
2:30 PM,82.4,68.0,62,30.01,6.2,SE,20.7,-,N/A,,Partly Cloudy,130,2013-07-07 04:30:00
3:00 PM,81,67,54,30.01,16,SE,20.7,,,,Scattered Clouds,130,2013-07-07 05:00:00
3:00 PM,80.6,68.0,65,30.01,6.2,SE,20.7,-,N/A,,Partly Cloudy,130,2013-07-07 05:00:00
3:30 PM,78.8,68.0,69,30.01,6.2,SE,20.7,-,N/A,,Partly Cloudy,140,2013-07-07 05:30:00
4:00 PM,79,68,60,30.02,,SE,20.7,,,,,140,2013-07-07 06:00:00
4:00 PM,78.8,68.0,69,30.01,6.2,SE,20.7,-,N/A,,Partly Cloudy,140,2013-07-07 06:00:00
4:30 PM,78.8,68.0,69,30.01,6.2,SE,23.0,-,N/A,,Partly Cloudy,140,2013-07-07 06:30:00
5:00 PM,77.0,66.2,69,30.01,6.2,SE,24.2,-,N/A,,Partly Cloudy,140,2013-07-07 07:00:00
5:30 PM,75.2,66.2,73,30.04,6.2,SE,21.9,-,N/A,,Partly Cloudy,140,2013-07-07 07:30:00
6:00 PM,75,66,67,30.06,,SE,20.7,,,,,140,2013-07-07 08:00:00
6:00 PM,75.2,66.2,73,30.04,6.2,SE,20.7,-,N/A,,Partly Cloudy,140,2013-07-07 08:00:00
6:30 PM,75.2,66.2,73,30.06,6.2,SE,20.7,-,N/A,,Scattered Clouds,140,2013-07-07 08:30:00
7:00 PM,75,65,65,30.08,,SE,19.6,,,,,140,2013-07-07 09:00:00
7:00 PM,75.2,66.2,73,30.06,6.2,SE,19.6,-,N/A,,Scattered Clouds,140,2013-07-07 09:00:00
7:30 PM,75.2,64.4,69,30.09,6.2,SE,19.6,-,N/A,,Scattered Clouds,140,2013-07-07 09:30:00
8:00 PM,75.2,64.4,69,30.09,6.2,SE,20.7,-,N/A,,Scattered Clouds,140,2013-07-07 10:00:00
8:30 PM,73.4,64.4,73,30.09,6.2,SSE,20.7,-,N/A,,Scattered Clouds,150,2013-07-07 10:30:00
9:00 PM,73,64,67,30.12,,SSE,16.1,,,,,160,2013-07-07 11:00:00
9:00 PM,73.4,64.4,73,30.12,6.2,SSE,16.1,-,N/A,,Partly Cloudy,160,2013-07-07 11:00:00
9:30 PM,73.4,64.4,73,30.12,6.2,South,13.8,-,N/A,,Partly Cloudy,170,2013-07-07 11:30:00
10:00 PM,72,65,74,30.14,,South,13.8,,,,,170,2013-07-07 12:00:00
10:00 PM,73.4,66.2,78,30.12,6.2,South,13.8,-,N/A,,Scattered Clouds,170,2013-07-07 12:00:00
10:30 PM,73.4,64.4,73,30.12,6.2,South,13.8,-,N/A,,Scattered Clouds,170,2013-07-07 12:30:00
11:00 PM,73.4,64.4,73,30.12,6.2,South,15.0,-,N/A,,Mostly Cloudy,170,2013-07-07 13:00:00
11:30 PM,73.4,64.4,73,30.12,6.2,SSE,17.3,-,N/A,Rain,Light Rain Showers,160,2013-07-07 13:30:00